When you browse on this site, cookies collect data to enhance your experience and personalize the content and advertising you see.
Visit our Privacy Policy to learn more. By continuing to use the site, you agree to this use of cookies and data.
  • In Österreich
  • Länderverzeichnis
  • Für 7 Tage
  • Wassertemperatur
  • Wetterkarte
  • News
  • Widgets
  • user-avatar
    Anmelden

    Stündliche Wetter Tel'mankend

    Heute, 4 Juni, Donnerstag

    Zeit Temperatur Niederschläge Wind Luftdruck Luftfeuchtigkeit
    00:00 +25°C° 0 mm 2 m/S 755 mmHg 53%
    01:00 +25°C° 0 mm 2 m/S 755 mmHg 55%
    02:00 +24°C° 0 mm 1 m/S 755 mmHg 57%
    03:00 +21°C° 0 mm 0 m/S 755 mmHg 61%
    04:00 +24°C° 0 mm 1 m/S 756 mmHg 58%
    05:00 +25°C° 0 mm 3 m/S 756 mmHg 55%
    06:00 +27°C° 0 mm 4 m/S 757 mmHg 53%
    07:00 +28°C° 0 mm 4 m/S 757 mmHg 49%
    08:00 +30°C° 0 mm 4 m/S 757 mmHg 46%
    09:00 +32°C° 0 mm 5 m/S 758 mmHg 40%
    10:00 +33°C° 0 mm 5 m/S 758 mmHg 36%
    11:00 +35°C° 0 mm 6 m/S 758 mmHg 33%
    12:00 +36°C° 0 mm 6 m/S 758 mmHg 29%
    13:00 +37°C° 0 mm 8 m/S 757 mmHg 30%
    14:00 +35°C° 0 mm 9 m/S 757 mmHg 30%
    15:00 +36°C° 0 mm 10 m/S 757 mmHg 31%
    16:00 +33°C° 0 mm 10 m/S 757 mmHg 34%
    17:00 +31°C° 0 mm 9 m/S 757 mmHg 38%
    18:00 +29°C° 0 mm 9 m/S 757 mmHg 42%
    19:00 +27°C° 0 mm 8 m/S 758 mmHg 47%
    20:00 +24°C° 0 mm 6 m/S 758 mmHg 53%
    21:00 +23°C° 0 mm 5 m/S 759 mmHg 58%
    22:00 +22°C° 0 mm 4 m/S 759 mmHg 63%
    23:00 +21°C° 0 mm 3 m/S 759 mmHg 67%

    Morgen, 5 Juni, Freitag

    Zeit Temperatur Niederschläge Wind Luftdruck Luftfeuchtigkeit
    00:00 +20°C° 0 mm 3 m/S 759 mmHg 71%
    01:00 +20°C° 0 mm 2 m/S 758 mmHg 73%
    02:00 +20°C° 0 mm 1 m/S 758 mmHg 75%
    03:00 +20°C° 0 mm 1 m/S 758 mmHg 77%
    04:00 +21°C° 0 mm 1 m/S 759 mmHg 73%
    05:00 +21°C° 0 mm 2 m/S 759 mmHg 68%
    06:00 +23°C° 0 mm 2 m/S 760 mmHg 63%
    07:00 +25°C° 0 mm 2 m/S 760 mmHg 55%
    08:00 +27°C° 0 mm 3 m/S 760 mmHg 48%
    09:00 +29°C° 0 mm 3 m/S 760 mmHg 40%
    10:00 +31°C° 0 mm 2 m/S 760 mmHg 36%
    11:00 +32°C° 0 mm 1 m/S 760 mmHg 33%
    12:00 +34°C° 0 mm 1 m/S 760 mmHg 30%
    13:00 +35°C° 0 mm 2 m/S 760 mmHg 28%
    14:00 +36°C° 0 mm 3 m/S 760 mmHg 27%
    15:00 +37°C° 0 mm 5 m/S 759 mmHg 26%
    16:00 +35°C° 0 mm 6 m/S 760 mmHg 29%
    17:00 +33°C° 0 mm 7 m/S 760 mmHg 32%
    18:00 +32°C° 0 mm 9 m/S 760 mmHg 35%
    19:00 +29°C° 0 mm 8 m/S 761 mmHg 40%
    20:00 +27°C° 0 mm 8 m/S 762 mmHg 46%
    21:00 +24°C° 0 mm 8 m/S 762 mmHg 51%
    22:00 +24°C° 0 mm 6 m/S 763 mmHg 53%
    23:00 +23°C° 0 mm 5 m/S 763 mmHg 55%

    übermorgen, 6 Juni, Samstag

    Zeit Temperatur Niederschläge Wind Luftdruck Luftfeuchtigkeit
    00:00 +22°C° 0 mm 3 m/S 763 mmHg 56%
    01:00 +22°C° 0 mm 3 m/S 763 mmHg 58%
    02:00 +23°C° 0 mm 2 m/S 764 mmHg 59%
    03:00 +22°C° 0 mm 1 m/S 764 mmHg 60%
    04:00 +23°C° 0.1 mm 1 m/S 764 mmHg 59%
    05:00 +24°C° 0.1 mm 1 m/S 764 mmHg 57%
    06:00 +24°C° 0.1 mm 2 m/S 764 mmHg 55%
    07:00 +25°C° 0.1 mm 2 m/S 764 mmHg 52%
    08:00 +26°C° 0.1 mm 2 m/S 765 mmHg 49%
    09:00 +28°C° 0.1 mm 2 m/S 765 mmHg 46%
    10:00 +28°C° 0.1 mm 2 m/S 764 mmHg 46%
    11:00 +28°C° 0.1 mm 2 m/S 764 mmHg 46%
    12:00 +28°C° 0.1 mm 2 m/S 764 mmHg 45%
    13:00 +29°C° 0.1 mm 2 m/S 764 mmHg 42%
    14:00 +30°C° 0.1 mm 2 m/S 763 mmHg 39%
    15:00 +31°C° 0.1 mm 2 m/S 763 mmHg 36%
    16:00 +31°C° 0 mm 3 m/S 763 mmHg 36%
    17:00 +32°C° 0 mm 4 m/S 763 mmHg 35%
    18:00 +30°C° 0 mm 5 m/S 763 mmHg 35%
    19:00 +29°C° 0.2 mm 5 m/S 763 mmHg 40%
    20:00 +27°C° 0.2 mm 5 m/S 764 mmHg 45%
    21:00 +25°C° 0.2 mm 5 m/S 764 mmHg 50%
    22:00 +23°C° 0.3 mm 4 m/S 764 mmHg 53%
    23:00 +23°C° 0.3 mm 4 m/S 764 mmHg 55%

    7 Juni, Sonntag

    Zeit Temperatur Niederschläge Wind Luftdruck Luftfeuchtigkeit
    00:00 +22°C° 0.3 mm 3 m/S 764 mmHg 58%
    01:00 +22°C° 0.2 mm 3 m/S 764 mmHg 61%
    02:00 +21°C° 0.2 mm 2 m/S 764 mmHg 63%
    03:00 +21°C° 0.2 mm 2 m/S 764 mmHg 65%
    04:00 +22°C° 0 mm 1 m/S 764 mmHg 63%
    05:00 +23°C° 0 mm 1 m/S 764 mmHg 60%
    06:00 +24°C° 0 mm 1 m/S 764 mmHg 57%
    07:00 +25°C° 0 mm 1 m/S 764 mmHg 51%
    08:00 +27°C° 0 mm 1 m/S 764 mmHg 45%
    09:00 +29°C° 0 mm 1 m/S 764 mmHg 38%
    10:00 +30°C° 0 mm 1 m/S 764 mmHg 36%
    11:00 +31°C° 0 mm 1 m/S 763 mmHg 34%
    12:00 +32°C° 0 mm 2 m/S 763 mmHg 31%
    13:00 +34°C° 0 mm 2 m/S 763 mmHg 29%
    14:00 +35°C° 0 mm 2 m/S 763 mmHg 27%
    15:00 +35°C° 0 mm 3 m/S 762 mmHg 25%
    16:00 +34°C° 0 mm 5 m/S 762 mmHg 27%
    17:00 +33°C° 0 mm 6 m/S 762 mmHg 30%
    18:00 +31°C° 0 mm 8 m/S 762 mmHg 32%
    19:00 +29°C° 0 mm 7 m/S 762 mmHg 34%
    20:00 +27°C° 0 mm 6 m/S 762 mmHg 36%
    21:00 +26°C° 0 mm 5 m/S 763 mmHg 38%
    22:00 +25°C° 0 mm 4 m/S 762 mmHg 39%
    23:00 +24°C° 0 mm 3 m/S 762 mmHg 39%

    8 Juni, Montag

    Zeit Temperatur Niederschläge Wind Luftdruck Luftfeuchtigkeit
    00:00 +24°C° 0 mm 2 m/S 762 mmHg 40%
    01:00 +23°C° 0 mm 2 m/S 762 mmHg 41%
    02:00 +23°C° 0 mm 2 m/S 762 mmHg 42%
    03:00 +23°C° 0 mm 2 m/S 762 mmHg 42%
    04:00 +24°C° 0 mm 2 m/S 761 mmHg 41%
    05:00 +24°C° 0 mm 2 m/S 761 mmHg 39%
    06:00 +25°C° 0 mm 2 m/S 761 mmHg 37%
    07:00 +27°C° 0 mm 2 m/S 761 mmHg 33%
    08:00 +29°C° 0 mm 2 m/S 761 mmHg 29%
    09:00 +31°C° 0 mm 2 m/S 761 mmHg 25%
    10:00 +32°C° 0 mm 1 m/S 761 mmHg 23%
    11:00 +34°C° 0 mm 1 m/S 760 mmHg 21%
    12:00 +33°C° 0 mm 0 m/S 760 mmHg 19%
    13:00 +36°C° 0 mm 1 m/S 760 mmHg 17%
    14:00 +36°C° 0 mm 1 m/S 759 mmHg 16%
    15:00 +38°C° 0 mm 2 m/S 759 mmHg 15%
    16:00 +36°C° 0 mm 4 m/S 759 mmHg 18%
    17:00 +35°C° 0 mm 5 m/S 759 mmHg 20%
    18:00 +34°C° 0 mm 7 m/S 759 mmHg 22%
    19:00 +32°C° 0 mm 6 m/S 759 mmHg 26%
    20:00 +29°C° 0 mm 5 m/S 760 mmHg 30%
    21:00 +26°C° 0 mm 4 m/S 760 mmHg 34%
    22:00 +26°C° 0 mm 4 m/S 760 mmHg 37%
    23:00 +25°C° 0 mm 3 m/S 760 mmHg 41%

    9 Juni, Dienstag

    Zeit Temperatur Niederschläge Wind Luftdruck Luftfeuchtigkeit
    00:00 +24°C° 0 mm 3 m/S 760 mmHg 44%
    01:00 +24°C° 0 mm 3 m/S 760 mmHg 46%
    02:00 +22°C° 0 mm 3 m/S 760 mmHg 49%
    03:00 +23°C° 0 mm 2 m/S 760 mmHg 51%
    04:00 +24°C° 0 mm 2 m/S 760 mmHg 50%
    05:00 +24°C° 0 mm 2 m/S 760 mmHg 48%
    06:00 +25°C° 0 mm 2 m/S 760 mmHg 46%
    07:00 +27°C° 0 mm 2 m/S 760 mmHg 39%
    08:00 +29°C° 0 mm 2 m/S 760 mmHg 32%
    09:00 +32°C° 0 mm 2 m/S 760 mmHg 25%
    10:00 +34°C° 0 mm 3 m/S 760 mmHg 24%
    11:00 +36°C° 0 mm 4 m/S 760 mmHg 22%
    12:00 +37°C° 0 mm 4 m/S 760 mmHg 21%
    13:00 +37°C° 0 mm 5 m/S 759 mmHg 20%
    14:00 +38°C° 0 mm 6 m/S 759 mmHg 20%
    15:00 +39°C° 0 mm 7 m/S 759 mmHg 20%
    16:00 +36°C° 0 mm 7 m/S 759 mmHg 23%
    17:00 +35°C° 0 mm 7 m/S 759 mmHg 25%
    18:00 +33°C° 0 mm 6 m/S 759 mmHg 27%
    19:00 +30°C° 0 mm 6 m/S 759 mmHg 33%
    20:00 +28°C° 0 mm 5 m/S 760 mmHg 38%
    21:00 +26°C° 0 mm 4 m/S 760 mmHg 44%
    22:00 +25°C° 0 mm 3 m/S 760 mmHg 47%
    23:00 +25°C° 0 mm 3 m/S 760 mmHg 49%
    Mehr zeigen